Simultaneous Nadir Overpasses (SNOs) Predictions

Prediction of SNOs between GOES-15 and NOAA-19 Satellite Orbit:

Table of predicted SNOs for the next 14.0 days since TLE Epoch: 2/8/2025
Index Date Time (GOES-15) GOES-15 Lat,Lon NOAA-19 Lat,Lon Distance(km) Time Diff (sec)
1 02/09/2025 05:48:38 -0.01, 61.56 0.96, 57.27 488.49 80
2 02/10/2025 05:36:05 -0.01, 61.55 0.27, 60.32 139.73 80
3 02/11/2025 05:26:13 -0.00, 61.54 -0.42, 63.37 209.03 80
4 02/13/2025 17:45:05 0.01, 61.49 -0.59, 58.87 298.69 80
5 02/14/2025 17:29:52 0.00, 61.48 0.12, 61.91 49.95 80
6 02/15/2025 17:17:19 -0.00, 61.47 0.78, 64.97 398.46 80
7 02/17/2025 05:48:40 -0.01, 61.49 0.91, 57.43 463.53 80
8 02/18/2025 05:36:08 -0.00, 61.49 0.20, 60.47 114.95 80
9 02/19/2025 05:26:14 -0.00, 61.48 -0.45, 63.53 233.49 80
10 02/21/2025 17:45:04 0.02, 61.43 -0.53, 59.03 273.85 80
